LiveATC.Net - Listen to live air traffic control over the Internet!


ICAO: CYVK  IATA: YVK   Airport: Vernon Airport
City: Vernon   State/Province: British Columbia
Country: Canada   Continent: North America
CYLW METAR Weather: CYLW 250400Z AUTO 00000KT 9SM -RA BKN048 OVC060 08/07 A3011 RMK SLP211
CYVK Flight Activity (FlightAware)

CYVK CTAF/UNICOM
Feed Status: UP   Listeners: 0
Listen in your browser - HTML5 player (in browser, HTML5)
Click here to listen with your own player (launches your MP3 player)
CYVK CTAF/UNICOM Audio Archives
FacilityFrequency
Vernon CTAF/UNICOM122.800

NOTICE

Unauthorized use prohibited. See LiveATC.net Terms of Service


Find LiveATC Audio Streams


Airport/ARTCC Code

Frequency Search
(e.g., 124.400, 128.75)
Site-wide search
 


Browse LiveATC Feeds
Top 50 LiveATC Feeds
LiveATC Feed Map
Bad Weather Areas

LiveATC FAQ
Offer LiveATC feed
Contact LiveATC.net
Press Inquiries

LiveATC on iPhone
LiveATC on Android

Windows Phone
Windows 8/10

LiveATC Mobile
(Mobile browser)

ATC Audio Archives
Interesting Recordings

LiveATC Forums


Home Page
About LiveATC.net
Make a Donation
Terms of Use
Privacy Policy

Canadian Air Freqs

AIRMETs/SIGMETs

FAA Airport Status
Nat'l Airspace Status
Arrival Demand Charts


Server Software By:
Icecast.org
Liquidsoap